Stations météo

réclame
Mon MeteoGroup
Baltasound, Grande-Bretagne (3002): Température de l'air & dewpoint: 10.07.2019 11:00:00 - 16.07.2019 11:00:00 (BST)Baltasound, Grande-Bretagne (3002): Température de l'air -20cm: 10.07.2019 11:00:00 - 16.07.2019 11:00:00 (BST)Baltasound, Grande-Bretagne (3002): Vitesse du vent: 10.07.2019 11:00:00 - 16.07.2019 11:00:00 (BST)Baltasound, Grande-Bretagne (3002): Direction du vent: 10.07.2019 11:00:00 - 16.07.2019 11:00:00 (BST)Baltasound, Grande-Bretagne (3002): reduced air pressure: 10.07.2019 11:00:00 - 16.07.2019 11:00:00 (BST)Baltasound, Grande-Bretagne (3002): visibility: 10.07.2019 11:00:00 - 16.07.2019 11:00:00 (BST)Baltasound, Grande-Bretagne (3002): Quantités de précipitations: 10.07.2019 11:00:00 - 16.07.2019 11:00:00 (BST)
Date & Time tt [°C] td [°C] tt -20cm [°C] ff [km/h] ff [knt] dd ppp [hPa] vv [km] rr [mm]
16.07.2019 11:00:00 11,5 11,0 - 15 8 SSE 1017,0 3,5 -
16.07.2019 10:00:00 11,8 10,7 - 13 7 SSE 1017,3 11 -
16.07.2019 09:00:00 11,5 11,1 - 15 8 SE 1017,5 6 0,0
16.07.2019 08:00:00 11,6 10,5 - 15 8 SE 1017,7 16 0,0
16.07.2019 07:00:00 11,1 10,4 - 9 5 ESE 1017,9 15 0,0
16.07.2019 06:00:00 10,9 10,2 - 11 6 SE 1018,0 11 0,0
16.07.2019 05:00:00 10,7 10,1 - 9 5 ESE 1018,2 29 0,0
16.07.2019 04:00:00 10,6 10,2 - 8 4 ESE 1018,5 21 0,0
16.07.2019 03:00:00 10,6 10,2 - 8 4 ESE 1018,8 13 0,0
16.07.2019 02:00:00 10,7 10,4 - 5 3 E 1019,1 14 0,0
16.07.2019 01:00:00 10,8 10,6 - 8 4 E 1019,4 8 0,0
16.07.2019 00:00:00 11,1 10,8 - 9 5 ENE 1019,5 8 0,0
15.07.2019 23:00:00 11,3 11,0 - 8 4 ENE 1019,5 2,9 0,0
15.07.2019 22:00:00 11,6 11,3 - 8 4 NE 1019,4 6 0,0
15.07.2019 21:00:00 12,1 11,6 - 9 5 N 1019,5 1,2 0,0
15.07.2019 20:00:00 12,6 12,1 - 9 5 NNW 1019,4 6 0,0
15.07.2019 19:00:00 12,6 12,2 - 13 7 NNW 1019,5 1,9 0,0
15.07.2019 18:00:00 12,7 12,3 - 18 10 NW 1019,8 1,7 0,0
15.07.2019 17:00:00 13,1 12,1 - 22 12 NW 1019,9 22 0,0
15.07.2019 16:00:00 13,2 12,3 - 22 12 NW 1019,8 13 0,0
15.07.2019 15:00:00 13,3 12,0 - 22 12 WNW 1019,7 14 0,0
15.07.2019 14:00:00 14,4 12,8 - 24 13 WNW 1019,5 19 0,0
15.07.2019 13:00:00 13,9 13,0 - 26 14 WNW 1019,6 20 0,0
15.07.2019 12:00:00 13,1 12,8 - 26 14 WNW 1019,7 17 0,0
15.07.2019 11:00:00 12,8 12,7 - 22 12 WNW 1019,8 2,7 0,0
15.07.2019 10:00:00 13,0 12,9 13,5 24 13 WNW 1019,6 1,6 0,0
15.07.2019 09:00:00 12,9 12,8 - 26 14 W 1019,6 0,7 0,0
15.07.2019 08:00:00 12,6 12,5 - 21 11 W 1019,8 6 0,2
15.07.2019 07:00:00 12,2 12,1 - 26 14 W 1019,7 7 0,2
15.07.2019 06:00:00 12,2 12,1 - 28 15 W 1020,0 2,6 0,6
15.07.2019 05:00:00 11,9 11,8 - 26 14 W 1020,7 2,5 0,4
15.07.2019 04:00:00 11,6 11,4 - 24 13 W 1020,9 1,4 0,0
15.07.2019 03:00:00 11,6 11,3 - 18 10 W 1021,5 1,6 0,0
15.07.2019 02:00:00 11,6 10,8 - 18 10 W 1021,9 6 0,0
15.07.2019 01:00:00 11,6 10,1 - 13 7 WNW 1022,3 50 0,0
15.07.2019 00:00:00 11,3 9,7 - 8 4 W 1022,3 30 0,0
14.07.2019 23:00:00 11,3 8,6 - 13 7 NW 1022,8 50 0,0
14.07.2019 22:00:00 11,4 8,2 - 13 7 NW 1023,0 45 0,0
14.07.2019 21:00:00 11,7 9,2 - 15 8 WNW 1023,1 50 0,0
14.07.2019 20:00:00 11,8 8,9 - 16 9 WNW 1023,4 50 0,0
14.07.2019 19:00:00 12,2 9,5 - 21 11 WNW 1023,5 35 0,0
14.07.2019 18:00:00 12,7 10,2 - 22 12 WNW 1023,7 35 0,0
14.07.2019 17:00:00 12,6 10,5 - 22 12 WNW 1023,8 26 0,0
14.07.2019 16:00:00 12,8 11,4 - 21 11 WNW 1023,9 30 0,0
14.07.2019 15:00:00 12,6 10,4 - 16 9 WNW 1024,1 11 0,0
14.07.2019 14:00:00 12,6 9,2 - 18 10 NW 1024,1 40 0,0
14.07.2019 13:00:00 13,2 9,3 - 18 10 NW 1024,1 50 0,0
14.07.2019 12:00:00 12,7 8,8 - 18 10 NNW 1023,9 35 0,0
14.07.2019 11:00:00 12,2 8,7 - 24 13 NNW 1024,1 45 0,0
14.07.2019 10:00:00 11,2 8,3 13,2 22 12 NNW 1023,9 30 0,0
14.07.2019 09:00:00 11,6 8,1 - 18 10 NNW 1023,6 45 0,0
14.07.2019 08:00:00 11,1 7,2 - 21 11 NNW 1023,6 45 0,0
14.07.2019 07:00:00 11,1 7,5 - 15 8 NW 1023,2 50 0,0
14.07.2019 06:00:00 10,8 7,6 - 15 8 NW 1023,3 50 0,0
14.07.2019 05:00:00 10,5 7,6 - 15 8 NW 1023,2 50 0,0
14.07.2019 04:00:00 10,4 7,1 - 13 7 NW 1023,2 45 0,0
14.07.2019 03:00:00 10,3 7,2 - 13 7 NNW 1023,4 50 0,0
14.07.2019 02:00:00 10,4 7,0 - 15 8 NW 1023,4 50 0,0
14.07.2019 01:00:00 10,3 6,5 - 15 8 NNW 1023,2 50 0,0
14.07.2019 00:00:00 10,5 6,8 - 16 9 NNW 1023,0 50 0,0
13.07.2019 23:00:00 10,7 7,1 - 16 9 NNW 1022,8 50 0,0
13.07.2019 22:00:00 10,8 7,9 - 15 8 NNW 1022,7 40 0,0
13.07.2019 21:00:00 10,8 8,6 - 13 7 NNW 1022,5 40 0,0
13.07.2019 20:00:00 11,4 7,1 - 18 10 NW 1022,2 50 0,0
13.07.2019 19:00:00 11,5 7,2 - 21 11 NNW 1022,0 40 0,0
13.07.2019 18:00:00 11,6 7,0 - 18 10 NNW 1021,5 35 0,0
13.07.2019 17:00:00 12,1 7,6 - 16 9 NNW 1021,5 35 0,0
13.07.2019 16:00:00 12,8 7,7 - 18 10 N 1021,3 40 0,0
13.07.2019 15:00:00 12,4 7,6 - 18 10 NNW 1021,0 35 0,0
13.07.2019 14:00:00 11,9 8,0 - 16 9 NNW 1020,9 40 0,0
13.07.2019 13:00:00 13,0 8,4 - 16 9 NNW 1020,6 40 0,0
13.07.2019 12:00:00 12,3 7,8 - 16 9 NNW 1020,4 45 0,0
13.07.2019 11:00:00 12,1 8,5 - 16 9 NNW 1020,1 50 0,0
13.07.2019 10:00:00 11,0 9,7 13,0 15 8 NW 1020,0 50 0,0
13.07.2019 09:00:00 11,0 9,2 - 13 7 NW 1019,8 40 0,0
13.07.2019 08:00:00 10,7 9,2 - 15 8 NNW 1019,4 45 0,0
13.07.2019 07:00:00 10,5 9,7 - 15 8 NNW 1019,3 3,3 0,2
13.07.2019 06:00:00 9,5 9,0 - 13 7 WNW 1019,0 50 0,0
13.07.2019 05:00:00 9,6 9,2 - 16 9 NNW 1018,9 24 0,0
13.07.2019 04:00:00 9,5 9,1 - 18 10 WNW 1019,0 7 0,0
13.07.2019 03:00:00 9,8 9,0 - 13 7 NW 1018,8 30 0,0
13.07.2019 02:00:00 9,6 8,9 - 5 3 WNW 1018,6 15 0,0
13.07.2019 01:00:00 9,8 9,2 - 16 9 NNW 1018,6 24 0,0
13.07.2019 00:00:00 10,1 9,5 - 9 5 NNW 1018,5 26 0,0
12.07.2019 23:00:00 10,1 9,6 - 13 7 NNW 1018,6 4,6 0,2
12.07.2019 22:00:00 10,6 10,0 - 9 5 NW 1018,1 7 0,0
12.07.2019 21:00:00 11,1 9,6 - 13 7 NNW 1017,6 9 0,0
12.07.2019 20:00:00 11,9 9,2 - 15 8 NW 1017,5 35 0,0
12.07.2019 19:00:00 11,9 9,9 - 13 7 WNW 1017,4 30 0,0
12.07.2019 18:00:00 12,1 9,1 - 16 9 NW 1017,1 45 0,0
12.07.2019 17:00:00 12,3 8,9 - 15 8 NNW 1016,9 28 0,0
12.07.2019 16:00:00 12,6 9,6 - 15 8 NW 1016,8 29 0,0
12.07.2019 15:00:00 12,5 8,9 - 15 8 N 1016,5 35 0,0
12.07.2019 14:00:00 12,7 9,5 - 15 8 N 1016,3 30 0,0
12.07.2019 13:00:00 12,9 9,5 - 13 7 N 1016,0 27 0,0
12.07.2019 12:00:00 12,0 9,4 - 13 7 NNE 1015,7 30 0,0
12.07.2019 11:00:00 11,8 9,1 - 16 9 NNE 1015,4 35 0,0
12.07.2019 10:00:00 11,6 8,9 13,0 13 7 NNE 1015,1 35 0,0
12.07.2019 09:00:00 11,2 8,6 - 15 8 N 1015,0 35 0,0
12.07.2019 08:00:00 11,0 8,6 - 15 8 NE 1014,7 45 0,0
12.07.2019 07:00:00 10,8 8,3 - 13 7 NNE 1014,4 45 0,0
12.07.2019 06:00:00 10,7 8,6 - 13 7 NE 1013,8 35 0,0
12.07.2019 05:00:00 10,4 8,3 - 13 7 NNE 1013,6 35 0,0
12.07.2019 04:00:00 10,5 8,4 - 13 7 NNE 1013,6 30 0,0
12.07.2019 03:00:00 10,6 8,6 - 11 6 NE 1013,5 35 0,0
12.07.2019 02:00:00 10,7 8,6 - 11 6 NE 1013,5 30 0,0
12.07.2019 01:00:00 10,8 8,8 - 15 8 NNE 1013,1 30 0,0
12.07.2019 00:00:00 10,9 9,2 - 13 7 NE 1013,3 27 0,0
11.07.2019 23:00:00 11,0 9,4 - 15 8 ENE 1013,4 30 0,0
11.07.2019 22:00:00 11,1 9,5 - 11 6 ENE 1013,3 28 0,0
11.07.2019 21:00:00 11,3 9,5 - 15 8 ENE 1013,0 30 0,0
11.07.2019 20:00:00 11,7 9,8 - 16 9 ENE 1012,9 40 0,0
11.07.2019 19:00:00 12,1 9,9 - 15 8 ENE 1012,7 40 0,0
11.07.2019 18:00:00 12,7 10,5 - 18 10 E 1012,7 30 0,0
11.07.2019 17:00:00 13,2 10,7 - 16 9 E 1012,7 29 0,0
11.07.2019 16:00:00 13,9 10,8 - 18 10 E 1012,7 17 0,0
11.07.2019 15:00:00 13,9 10,9 - 18 10 E 1012,7 40 0,0
11.07.2019 14:00:00 14,1 11,1 - 18 10 E 1012,6 30 0,0
11.07.2019 13:00:00 13,5 10,9 - 21 11 E 1012,6 20 0,0
11.07.2019 12:00:00 13,4 11,3 - 22 12 E 1012,6 30 0,0
11.07.2019 11:00:00 13,2 11,5 - 24 13 E 1012,7 35 0,0
11.07.2019 10:00:00 13,1 12,1 12,7 21 11 E 1012,6 26 0,0
11.07.2019 09:00:00 12,7 11,9 - 16 9 E 1012,5 22 0,0
11.07.2019 08:00:00 12,5 11,8 - 15 8 E 1012,4 23 0,0
11.07.2019 07:00:00 11,9 11,2 - 16 9 ESE 1012,4 21 0,0
11.07.2019 06:00:00 11,6 11,1 - 11 6 E 1012,5 27 0,0
11.07.2019 05:00:00 11,5 10,9 - 13 7 ESE 1012,7 24 0,0
11.07.2019 04:00:00 11,5 10,7 - 13 7 ESE 1013,0 24 0,0
11.07.2019 03:00:00 11,5 10,9 - 16 9 ESE 1013,3 20 0,0
11.07.2019 02:00:00 11,4 11,0 - 18 10 ESE 1013,6 25 0,2
11.07.2019 01:00:00 11,3 11,1 - 16 9 ESE 1013,7 4,2 0,2
11.07.2019 00:00:00 11,4 11,2 - 18 10 ESE 1014,1 2,9 0,2
10.07.2019 23:00:00 11,5 11,2 - 15 8 ESE 1014,2 4,4 0,0
10.07.2019 22:00:00 11,6 11,3 - 18 10 ESE 1014,3 3,9 0,0
10.07.2019 21:00:00 11,7 11,2 - 21 11 ESE 1014,4 3,8 0,0
10.07.2019 20:00:00 12,3 11,1 - 21 11 ESE 1014,6 17 0,0
10.07.2019 19:00:00 12,7 11,0 - 22 12 ESE 1014,7 26 0,0
10.07.2019 18:00:00 12,7 10,9 - 21 11 ESE 1014,9 35 0,0
10.07.2019 17:00:00 12,8 11,0 - 21 11 ESE 1015,2 30 0,0
10.07.2019 16:00:00 12,8 10,9 - 18 10 ESE 1015,6 40 0,0
10.07.2019 15:00:00 12,8 10,9 - 21 11 ESE 1015,9 23 0,0
10.07.2019 14:00:00 13,2 11,1 - 21 11 ESE 1016,0 28 0,0
10.07.2019 13:00:00 12,4 10,6 - 18 10 ESE 1016,2 30 0,0
10.07.2019 12:00:00 12,6 10,4 - 24 13 ESE 1016,2 30 0,0
10.07.2019 11:00:00 12,3 10,3 - 18 10 ESE 1016,5 35 -

tt = Température de l'air
td = dewpoint
tt -20cm = Température de l'air -20cm
ff = Vitesse du vent
dd = Direction du vent
ppp = reduced air pressure
vv = visibility
rr = Quantités de précipitations

stations d'obs. à proximité